This is the latest recevied weather packets stored in our database for station/object KD4KKF. If no packets are shown the sender has not sent any weather packets the latest 1 day(s).
| Time | Temp. | Humidity | Pressure | Rain* | Wind** | Luminosity | Snow |
|---|---|---|---|---|---|---|---|
| 1778045312 | 22.22° C | 82% | 1009.8 hPa | 0 mm | 0.89 m/s, 76° | 0 W/m² | - |
| 1778045011 | 22.22° C | 82% | 1010.2 hPa | 0 mm | 0.45 m/s, 183° | 0 W/m² | - |
| 1778044708 | 22.22° C | 81% | 1010.1 hPa | 0 mm | 0.89 m/s, 133° | 0 W/m² | - |
| 1778044404 | 22.22° C | 80% | 1010 hPa | 0 mm | 0.45 m/s, 94° | 0 W/m² | - |
| 1778044102 | 22.22° C | 81% | 1010.2 hPa | 0 mm | 0.45 m/s, 185° | 0 W/m² | - |
| 1778043799 | 22.22° C | 81% | 1010.2 hPa | 0 mm | 0.45 m/s, 152° | 0 W/m² | - |
| 1778043496 | 22.22° C | 81% | 1010.2 hPa | 0 mm | 0 m/s | 0 W/m² | - |
| 1778043192 | 22.22° C | 80% | 1010.2 hPa | 0 mm | 0.89 m/s, 128° | 0 W/m² | - |
| 1778042889 | 22.22° C | 80% | 1010.4 hPa | 0 mm | 1.79 m/s, 253° | 0 W/m² | - |
| 1778042587 | 22.22° C | 80% | 1010.3 hPa | 0 mm | 0.45 m/s, 40° | 0 W/m² | - |
| 1778042284 | 22.22° C | 81% | 1010.6 hPa | 0 mm | 1.34 m/s, 130° | 0 W/m² | - |
| 1778041981 | 22.22° C | 80% | 1010.3 hPa | 0 mm | 1.34 m/s, 212° | 0 W/m² | - |
| 1778041680 | 22.22° C | 81% | 1010.1 hPa | 0 mm | 2.24 m/s, 107° | 0 W/m² | - |
| 1778041379 | 22.22° C | 80% | 1010.3 hPa | 0 mm | 2.24 m/s, 250° | 0 W/m² | - |
| 1778041077 | 22.22° C | 81% | 1010.3 hPa | 0 mm | 0.45 m/s, 168° | 0 W/m² | - |
| 1778040773 | 22.22° C | 81% | 1010.4 hPa | 0 mm | 0.89 m/s, 229° | 0 W/m² | - |
| 1778040470 | 22.22° C | 81% | 1010.3 hPa | 0 mm | 0.45 m/s, 147° | 0 W/m² | - |
| 1778040168 | 22.22° C | 81% | 1010.1 hPa | 0 mm | 0.89 m/s, 148° | 0 W/m² | - |
| 1778039864 | 21.67° C | 81% | 1010.2 hPa | 0 mm | 0.45 m/s, 28° | 0 W/m² | - |
| 1778039561 | 21.67° C | 82% | 1010 hPa | 0 mm | 0.45 m/s, 134° | 0 W/m² | - |
| 1778039258 | 21.67° C | 81% | 1009.8 hPa | 0 mm | 0 m/s | 0 W/m² | - |
| 1778038955 | 21.67° C | 81% | 1009.9 hPa | 0 mm | 1.79 m/s, 181° | 0 W/m² | - |
| 1778038652 | 21.67° C | 81% | 1009.8 hPa | 0 mm | 0.89 m/s, 125° | 0 W/m² | - |
| 1778038350 | 21.67° C | 81% | 1010 hPa | 0 mm | 1.34 m/s, 202° | 0 W/m² | - |
| 1778038046 | 21.67° C | 81% | 1009.9 hPa | 0 mm | 1.34 m/s, 227° | 0 W/m² | - |
* Rain latest hour (hover to see other rain measurements)
** Current wind speed in m/s (hover to see current wind gust speed)